Retour au catalogue

YUNYAO-1 44

ActifScienceSSO
NORAD 63345·PAYLOAD·🇨🇳 China

Lancé Mar 21, 2025 depuis Jiuquan Satellite Launch Center

Loading…

Prochains Passages (prochaines 24 heures)

TLE

FraisSource: Space-Track

Époque: Sep 14, 2026, 14:10 UTC

1 63345U 25059B   26257.59061282  .00003020  00000-0  18183-3 0  9996
2 63345  97.6129  78.4830 0015958 206.6107 153.4305 15.11484767 81809

Suivez YUNYAO-1 44 en temps réel avec AllMySat

Download on the App Store